ITY8905 LIEE-EDDM

Flight info

Callsign ITY8905
Flight time N/A
Altitude 38000
Route KOVAS DCT GIGGI DCT MADKA DCT MOULE DCT IRBAK DCT EVKIV DCT OTKEK DCT SOTOV/N0372F240 T101 BETOS BETOS1A
Aircraft A20N/M-SDE2E3FGHIJ1RWXY/LB1

Departure

Time 2026-05-08 19:47
Airport Cagliari Elmas Airport (LIEE)

Arrival

Time N/A
Airport Munich Airport (EDDM)
Time Latitude Longitude Altitude Speed Heading
2026-05-08 19:23 39.25251 9.05871 15 ft 0 kts 50°
2026-05-08 19:39 39.25249 9.05868 -13 ft 1 kts 50°
2026-05-08 19:39 39.25241 9.05856 16 ft 2 kts 48°
2026-05-08 19:39 39.25230 9.05842 15 ft 2 kts 29°
2026-05-08 19:39 39.25216 9.05835 15 ft 2 kts
2026-05-08 19:40 39.25202 9.05837 16 ft 2 kts 341°
2026-05-08 19:40 39.25188 9.05845 16 ft 2 kts 322°
2026-05-08 19:40 39.25184 9.05849 16 ft 0 kts 316°
2026-05-08 19:43 39.25185 9.05847 16 ft 2 kts 316°
2026-05-08 19:43 39.25240 9.05780 15 ft 14 kts 316°
2026-05-08 19:43 39.25324 9.05682 15 ft 18 kts 317°
2026-05-08 19:43 39.25394 9.05541 15 ft 20 kts 283°
2026-05-08 19:44 39.25442 9.05368 16 ft 22 kts 306°
2026-05-08 19:44 39.25555 9.05228 15 ft 23 kts 318°
2026-05-08 19:44 39.25680 9.05082 15 ft 25 kts 317°
2026-05-08 19:44 39.25814 9.04928 15 ft 27 kts 318°
2026-05-08 19:45 39.25955 9.04764 15 ft 28 kts 318°
2026-05-08 19:45 39.26070 9.04634 15 ft 17 kts 319°
2026-05-08 19:45 39.26119 9.04537 15 ft 11 kts 279°
2026-05-08 19:45 39.26122 9.04498 15 ft 3 kts 274°
2026-05-08 19:46 39.26121 9.04455 15 ft 6 kts 259°
2026-05-08 19:46 39.26090 9.04402 14 ft 9 kts 212°
2026-05-08 19:46 39.25932 9.04522 14 ft 44 kts 138°
2026-05-08 19:47 39.25488 9.05034 15 ft 124 kts 138°
2026-05-08 19:47 39.24695 9.05963 123 ft 174 kts 137°
2026-05-08 19:47 39.23818 9.07022 1009 ft 177 kts 137°
2026-05-08 19:47 39.22846 9.08163 1457 ft 194 kts 137°
2026-05-08 19:48 39.21890 9.09262 1558 ft 174 kts 138°
2026-05-08 19:48 39.20912 9.10365 1757 ft 201 kts 138°
2026-05-08 19:48 39.19792 9.11585 2285 ft 221 kts 146°
2026-05-08 19:48 39.18327 9.12209 2964 ft 231 kts 179°
2026-05-08 19:49 39.16776 9.11708 3889 ft 234 kts 212°
2026-05-08 19:49 39.15594 9.10305 4907 ft 231 kts 229°
2026-05-08 19:49 39.14510 9.08725 5864 ft 233 kts 232°
2026-05-08 19:49 39.13798 9.06915 6777 ft 231 kts 259°
2026-05-08 19:50 39.13848 9.04892 7726 ft 227 kts 287°
2026-05-08 19:50 39.14636 9.03154 8704 ft 229 kts 312°
2026-05-08 19:50 39.15844 9.01757 9458 ft 241 kts 314°
2026-05-08 19:50 39.17150 9.00268 9932 ft 261 kts 314°
2026-05-08 19:51 39.18527 8.98689 10617 ft 268 kts 314°
2026-05-08 19:51 39.19928 8.97078 11409 ft 272 kts 314°
2026-05-08 19:51 39.21349 8.95435 12199 ft 277 kts 313°
2026-05-08 19:51 39.22915 8.93934 12970 ft 287 kts 327°
2026-05-08 19:52 39.24838 8.93065 13743 ft 301 kts 345°
2026-05-08 19:52 39.26974 8.92851 14301 ft 316 kts 351°
2026-05-08 19:52 39.29245 8.92697 14504 ft 338 kts 351°
2026-05-08 19:52 39.31666 8.92530 14733 ft 357 kts 351°
2026-05-08 19:53 39.34169 8.92358 15343 ft 362 kts 351°
2026-05-08 19:53 39.36697 8.92186 16057 ft 365 kts 351°
2026-05-08 19:53 39.39245 8.92007 16742 ft 369 kts 351°
2026-05-08 19:53 39.41842 8.92082 17400 ft 380 kts
2026-05-08 19:54 39.44447 8.92902 18063 ft 393 kts 15°
2026-05-08 19:54 39.46945 8.94468 18653 ft 403 kts 24°
2026-05-08 19:54 39.49403 8.96238 19253 ft 406 kts 24°
2026-05-08 19:54 39.51885 8.98018 19815 ft 409 kts 23°
2026-05-08 19:55 39.54389 8.99809 20384 ft 413 kts 23°
2026-05-08 19:55 39.56917 9.01614 20943 ft 417 kts 23°
2026-05-08 19:55 39.59468 9.03435 21505 ft 420 kts 23°
2026-05-08 19:55 39.62047 9.05238 22080 ft 421 kts 20°
2026-05-08 19:56 39.64761 9.06636 22621 ft 418 kts 11°
2026-05-08 19:56 39.67581 9.07503 23148 ft 416 kts
2026-05-08 19:56 39.70411 9.07941 23664 ft 417 kts
2026-05-08 19:56 39.73308 9.08366 24132 ft 420 kts
2026-05-08 19:57 39.76223 9.08804 24584 ft 423 kts
2026-05-08 19:57 39.79158 9.09248 24993 ft 427 kts
2026-05-08 19:57 39.82121 9.09696 25425 ft 430 kts
2026-05-08 19:57 39.85098 9.10146 25855 ft 433 kts
2026-05-08 19:58 39.88101 9.10599 26271 ft 436 kts
2026-05-08 19:58 39.91129 9.11055 26679 ft 439 kts 360°
2026-05-08 19:58 39.94173 9.11507 27076 ft 442 kts 360°
2026-05-08 19:58 39.97234 9.11970 27474 ft 445 kts 360°
2026-05-08 19:59 40.00319 9.12438 27849 ft 448 kts 360°
2026-05-08 19:59 40.03431 9.12911 28220 ft 451 kts 360°
2026-05-08 19:59 40.06556 9.13385 28542 ft 454 kts
2026-05-08 19:59 40.09702 9.13862 28939 ft 456 kts 360°
2026-05-08 20:00 40.12863 9.14342 29245 ft 459 kts 360°
2026-05-08 20:00 40.16046 9.14824 29596 ft 462 kts
2026-05-08 20:00 40.18206 9.15152 29817 ft 464 kts
2026-05-08 20:00 40.22469 9.15800 30250 ft 467 kts
2026-05-08 20:01 40.24613 9.16127 30453 ft 469 kts
2026-05-08 20:01 40.27896 9.16600 30787 ft 468 kts 358°
2026-05-08 20:01 40.31105 9.16927 31100 ft 468 kts 357°
2026-05-08 20:01 40.34357 9.17206 31461 ft 468 kts 357°
2026-05-08 20:02 40.37599 9.17484 31886 ft 467 kts 357°
2026-05-08 20:02 40.40838 9.17777 32315 ft 465 kts 357°
2026-05-08 20:02 40.44060 9.18079 32716 ft 464 kts 357°
2026-05-08 20:02 40.47272 9.18387 33123 ft 462 kts 357°
2026-05-08 20:03 40.50477 9.18697 33510 ft 461 kts 357°
2026-05-08 20:03 40.53675 9.19009 33871 ft 460 kts 357°
2026-05-08 20:03 40.56858 9.19318 34202 ft 459 kts 357°
2026-05-08 20:03 40.60049 9.19627 34463 ft 459 kts 357°
2026-05-08 20:04 40.63234 9.19936 34706 ft 459 kts 357°
2026-05-08 20:04 40.66420 9.20245 34946 ft 459 kts 357°
2026-05-08 20:04 40.69608 9.20556 35172 ft 459 kts 357°
2026-05-08 20:04 40.72795 9.20866 35407 ft 460 kts 357°
2026-05-08 20:05 40.75981 9.21178 35634 ft 460 kts 357°
2026-05-08 20:05 40.79177 9.21490 35851 ft 460 kts 357°
2026-05-08 20:05 40.82367 9.21802 36067 ft 460 kts 357°
2026-05-08 20:05 40.85557 9.22115 36272 ft 460 kts 357°
2026-05-08 20:06 40.88744 9.22428 36488 ft 460 kts 357°
2026-05-08 20:06 40.91770 9.22725 36691 ft 460 kts 357°
2026-05-08 20:06 40.94958 9.23038 36899 ft 460 kts 357°
2026-05-08 20:06 40.98148 9.23351 37082 ft 460 kts 357°
2026-05-08 20:07 41.01345 9.23666 37256 ft 460 kts 357°
2026-05-08 20:07 41.04533 9.23980 37437 ft 460 kts 357°
2026-05-08 20:07 41.07723 9.24295 37614 ft 460 kts 357°
2026-05-08 20:07 41.10916 9.24610 37791 ft 460 kts 357°
2026-05-08 20:08 41.14108 9.24925 37953 ft 460 kts 357°
2026-05-08 20:08 41.17302 9.25241 38052 ft 460 kts 357°
2026-05-08 20:08 41.23661 9.25872 38060 ft 459 kts 357°
2026-05-08 20:09 41.30034 9.26503 38067 ft 459 kts 358°
2026-05-08 20:09 41.36386 9.27955 38071 ft 468 kts
2026-05-08 20:10 41.42671 9.30280 38067 ft 468 kts
2026-05-08 20:10 41.48953 9.32567 38067 ft 468 kts
2026-05-08 20:11 41.55235 9.34874 38064 ft 468 kts
2026-05-08 20:11 41.61507 9.37189 38062 ft 468 kts
2026-05-08 20:12 41.67776 9.39508 38055 ft 467 kts 10°
2026-05-08 20:12 41.73999 9.41814 38054 ft 467 kts 10°
2026-05-08 20:13 41.80261 9.44140 38057 ft 467 kts 10°
2026-05-08 20:13 41.86528 9.46472 38055 ft 467 kts 10°
2026-05-08 20:14 41.92798 9.48810 38052 ft 467 kts 10°
2026-05-08 20:14 41.99069 9.51154 38055 ft 468 kts 10°
2026-05-08 20:15 42.05337 9.53501 38056 ft 468 kts 10°
2026-05-08 20:15 42.11608 9.55854 38060 ft 468 kts 11°
2026-05-08 20:16 42.17878 9.58211 38063 ft 468 kts 11°
2026-05-08 20:16 42.24155 9.60576 38067 ft 468 kts 11°
2026-05-08 20:17 42.30435 9.62947 38072 ft 468 kts 11°
2026-05-08 20:17 42.36714 9.65323 38075 ft 468 kts 11°
2026-05-08 20:18 42.42992 9.67703 38079 ft 468 kts 11°
2026-05-08 20:18 42.49266 9.70086 38075 ft 468 kts 11°
2026-05-08 20:19 42.55510 9.72465 38070 ft 465 kts 11°
2026-05-08 20:19 42.61741 9.74840 38071 ft 465 kts 11°
2026-05-08 20:20 42.67992 9.76988 38065 ft 463 kts
2026-05-08 20:20 42.74280 9.78959 38058 ft 463 kts
2026-05-08 20:21 42.80552 9.80973 38064 ft 463 kts
2026-05-08 20:21 42.86814 9.83011 38064 ft 463 kts
2026-05-08 20:22 42.93070 9.85056 38053 ft 462 kts
2026-05-08 20:22 42.99326 9.87104 38050 ft 462 kts
2026-05-08 20:23 43.05575 9.89154 38058 ft 462 kts
2026-05-08 20:23 43.11823 9.91209 38051 ft 462 kts
2026-05-08 20:24 43.18030 9.93254 38053 ft 461 kts
2026-05-08 20:24 43.24272 9.95314 38057 ft 461 kts
2026-05-08 20:25 43.30510 9.97378 38056 ft 461 kts
2026-05-08 20:25 43.36739 9.99443 38054 ft 461 kts
2026-05-08 20:26 43.42969 10.01513 38055 ft 460 kts
2026-05-08 20:26 43.49188 10.03583 38057 ft 460 kts
2026-05-08 20:27 43.55401 10.05657 38064 ft 459 kts
2026-05-08 20:27 43.61609 10.07732 38063 ft 459 kts
2026-05-08 20:28 43.67832 10.09539 38065 ft 456 kts
2026-05-08 20:28 43.74077 10.11122 38066 ft 456 kts
2026-05-08 20:29 43.80312 10.12758 38066 ft 456 kts
2026-05-08 20:29 43.86542 10.14425 38061 ft 455 kts
2026-05-08 20:30 43.92721 10.16086 38059 ft 455 kts
2026-05-08 20:30 43.98978 10.17770 38060 ft 455 kts
2026-05-08 20:31 44.05149 10.19434 38061 ft 455 kts
2026-05-08 20:31 44.11361 10.21114 38074 ft 455 kts
2026-05-08 20:32 44.17577 10.22799 38075 ft 455 kts
2026-05-08 20:32 44.23785 10.24483 38087 ft 454 kts
2026-05-08 20:33 44.29990 10.26173 38100 ft 454 kts
2026-05-08 20:33 44.36185 10.27862 38116 ft 454 kts
2026-05-08 20:34 44.42386 10.29555 38123 ft 454 kts
2026-05-08 20:35 44.51651 10.32348 38104 ft 456 kts 11°
2026-05-08 20:35 44.57774 10.34654 38094 ft 456 kts 10°
2026-05-08 20:36 44.63897 10.36942 38089 ft 456 kts 10°
2026-05-08 20:36 44.69986 10.39232 38085 ft 456 kts 11°
2026-05-08 20:37 44.76111 10.41543 38067 ft 456 kts 11°
2026-05-08 20:37 44.82239 10.43861 38066 ft 456 kts 11°
2026-05-08 20:38 44.88368 10.46185 38075 ft 456 kts 11°
2026-05-08 20:38 44.94502 10.48515 38071 ft 457 kts 11°
2026-05-08 20:39 45.00637 10.50851 38069 ft 457 kts 11°
2026-05-08 20:39 45.06778 10.53194 38072 ft 457 kts 11°
2026-05-08 20:40 45.12887 10.55531 38060 ft 457 kts 11°
2026-05-08 20:40 45.19004 10.57875 38065 ft 458 kts 11°
2026-05-08 20:41 45.25152 10.60237 38065 ft 458 kts 11°
2026-05-08 20:41 45.31174 10.62556 38069 ft 458 kts 11°
2026-05-08 20:42 45.37338 10.64934 38070 ft 459 kts 11°
2026-05-08 20:42 45.43522 10.67124 38074 ft 457 kts
2026-05-08 20:43 45.49716 10.69235 38073 ft 457 kts
2026-05-08 20:43 45.55784 10.71338 38076 ft 457 kts
2026-05-08 20:44 45.62083 10.73541 38076 ft 457 kts
2026-05-08 20:44 45.68270 10.75711 38086 ft 458 kts
2026-05-08 20:45 45.74460 10.77887 38101 ft 458 kts
2026-05-08 20:45 45.80630 10.80061 38106 ft 457 kts
2026-05-08 20:46 45.86806 10.82240 38127 ft 456 kts
2026-05-08 20:46 45.92976 10.84423 38122 ft 458 kts
2026-05-08 20:47 45.98121 10.86251 38137 ft 458 kts
2026-05-08 20:47 46.04278 10.88440 38149 ft 457 kts
2026-05-08 20:48 46.11251 10.90925 38163 ft 458 kts
2026-05-08 20:48 46.16431 10.92774 38168 ft 457 kts
2026-05-08 20:49 46.22542 10.94956 38169 ft 458 kts
2026-05-08 20:49 46.28742 10.97184 38183 ft 458 kts
2026-05-08 20:50 46.34938 10.99407 38176 ft 459 kts
2026-05-08 20:50 46.41103 11.01633 38179 ft 457 kts
2026-05-08 20:51 46.47341 11.03886 38169 ft 459 kts
2026-05-08 20:51 46.53482 11.06111 38086 ft 458 kts
2026-05-08 20:52 46.59663 11.08349 38094 ft 458 kts
2026-05-08 20:52 46.65779 11.10571 38087 ft 459 kts
2026-05-08 20:53 46.71974 11.12830 38093 ft 457 kts
2026-05-08 20:53 46.78092 11.15066 38120 ft 458 kts 10°